Total_Precipitation_Accumulation
1.35 1.28 1.14 1.24 1.26 1.26 1.26 1.25 1.19 1.20 1.27 1.24 1.17 1.16 1.18 1.18 1.13 1.21 1.65 2.42 3.57 4.38 4.51 4.36 3.73 3.31 3.07 2.77 2.66 2.86 3.04 3.02 2.88 2.79 2.94 3.05 2.96 2.73 2.62 2.57 2.65 2.62 2.64
1.26 1.27 1.22 1.27 1.34 1.34 1.29 1.22 1.15 1.26 1.29 1.31 1.28 1.21 1.16 1.06 1.10 1.26 1.53 1.83 2.22 2.97 4.02 4.39 4.05 3.69 3.44 3.11 2.91 2.88 2.89 2.83 2.77 2.77 2.80 2.76 2.65 2.44 2.37 2.55 2.80 2.70 2.61
1.24 1.28 1.29 1.31 1.31 1.38 1.42 1.41 1.33 1.36 1.37 1.45 1.46 1.28 1.20 1.14 1.11 1.21 1.39 1.62 1.56 1.74 2.67 3.65 3.99 3.76 3.61 3.39 3.07 2.98 2.87 2.80 2.66 2.77 2.69 2.62 2.44 2.36 2.34 2.60 2.82 2.81 2.66
1.17 1.25 1.28 1.31 1.39 1.37 1.44 1.54 1.54 1.57 1.56 1.60 1.59 1.39 1.20 1.29 1.19 1.20 1.38 1.46 1.51 1.49 1.79 2.28 2.74 3.09 3.52 3.65 3.43 3.19 2.97 2.78 2.52 2.57 2.55 2.45 2.34 2.33 2.34 2.64 2.65 2.68 2.64
1.32 1.43 1.48 1.46 1.49 1.55 1.57 1.50 1.52 1.64 1.73 1.70 1.52 1.45 1.35 1.37 1.35 1.32 1.51 1.49 1.51 1.54 1.59 1.55 1.69 2.04 2.74 3.37 3.56 3.46 3.17 2.80 2.54 2.45 2.43 2.27 2.32 2.38 2.30 2.43 2.46 2.43 2.45
1.58 1.75 1.78 1.65 1.68 1.81 1.90 1.79 1.88 1.78 1.68 1.75 1.55 1.50 1.50 1.45 1.40 1.48 1.53 1.60 1.70 1.56 1.56 1.49 1.46 1.40 1.80 2.38 2.94 3.30 3.35 3.15 2.86 2.67 2.61 2.29 2.23 2.32 2.34 2.31 2.30 2.32 2.29
1.93 2.11 2.14 2.11 2.09 2.10 2.08 2.02 2.23 2.17 1.88 1.78 2.00 1.98 1.79 1.58 1.48 1.45 1.49 1.73 1.84 1.74 1.77 1.67 1.60 1.51 1.39 1.46 1.87 2.71 3.25 3.49 3.41 3.07 2.92 2.64 2.22 2.13 2.23 2.13 2.15 2.25 2.27
2.14 2.18 2.42 2.53 2.49 2.67 2.69 2.47 2.58 2.60 2.22 1.99 2.32 2.68 2.40 2.13 1.63 1.49 1.61 1.65 1.76 1.87 1.92 1.75 1.58 1.53 1.53 1.53 1.39 1.84 2.37 3.09 3.55 3.27 3.19 3.13 2.53 2.23 2.12 2.06 2.13 2.17 2.25
2.29 2.37 2.48 2.64 2.65 2.74 2.94 3.06 2.95 3.02 2.81 2.37 2.25 2.65 2.62 2.47 2.21 1.78 1.67 1.73 1.85 1.91 1.98 2.00 1.80 1.56 1.54 1.63 1.47 1.35 1.56 1.97 2.81 3.27 3.38 3.49 3.01 2.52 2.15 2.08 2.09 2.07 2.24
2.57 2.68 2.68 2.73 2.74 2.76 2.86 3.03 3.02 3.19 3.31 2.90 2.52 2.27 2.12 2.15 2.34 2.16 1.85 1.79 1.92 1.91 1.92 1.96 2.03 1.91 1.71 1.76 1.62 1.32 1.26 1.40 1.96 2.76 3.18 3.56 3.40 2.90 2.40 2.27 2.32 2.25 2.31
2.68 2.76 2.81 2.91 2.89 2.86 2.79 3.00 3.10 3.21 3.17 3.12 2.99 2.81 2.64 2.38 2.03 2.18 2.19 1.99 1.88 1.76 1.81 1.94 2.13 2.16 2.02 1.92 1.99 1.54 1.21 1.22 1.46 2.17 2.75 3.50 3.68 3.30 2.96 2.72 2.53 2.45 2.27
2.73 2.61 2.56 2.73 2.77 2.78 2.73 2.88 3.02 3.18 3.17 3.21 3.15 2.86 2.88 2.80 2.44 2.38 2.21 2.04 2.07 1.86 1.77 1.84 1.90 1.94 2.04 2.01 1.85 1.76 1.41 1.23 1.29 1.66 2.31 3.02 3.69 3.67 3.40 3.21 2.93 2.84 2.63
2.56 2.57 2.49 2.51 2.56 2.48 2.45 2.55 2.60 2.69 2.84 3.03 2.93 2.68 2.64 2.50 2.50 2.62 2.52 2.25 2.05 1.81 1.80 1.77 1.73 1.78 1.83 1.88 1.93 1.92 1.50 1.27 1.25 1.43 2.08 2.59 3.08 3.45 3.49 3.33 3.20 3.29 3.35
2.28 2.35 2.38 2.34 2.38 2.41 2.35 2.43 2.43 2.44 2.49 2.55 2.47 2.58 2.65 2.47 2.41 2.43 2.52 2.73 2.49 2.17 1.95 1.80 1.77 1.83 1.84 1.83 1.96 1.97 1.57 1.41 1.28 1.32 1.63 2.04 2.39 2.84 3.15 3.11 3.16 3.39 3.56
1.88 1.92 1.97 2.12 2.24 2.29 2.30 2.42 2.47 2.43 2.35 2.33 2.42 2.50 2.43 2.37 2.36 2.30 2.33 2.54 2.72 2.52 2.27 2.04 1.91 1.89 1.94 1.92 2.00 1.77 1.72 1.59 1.39 1.39 1.46 1.51 1.72 2.02 2.27 2.50 2.73 2.72 2.95
1.52 1.58 1.67 1.85 2.15 2.29 2.30 2.35 2.41 2.42 2.41 2.33 2.42 2.54 2.57 2.52 2.54 2.50 2.41 2.42 2.41 2.47 2.31 2.03 1.85 1.81 2.00 1.93 2.09 1.78 1.72 1.89 1.63 1.54 1.48 1.37 1.38 1.43 1.53 1.77 2.11 2.28 2.33
1.40 1.47 1.55 1.70 1.86 2.08 2.29 2.43 2.42 2.36 2.33 2.29 2.20 2.32 2.47 2.52 2.63 2.69 2.72 2.63 2.52 2.49 2.37 2.10 1.90 1.82 2.05 2.10 2.04 1.96 1.80 1.73 1.72 1.71 1.58 1.50 1.42 1.29 1.32 1.42 1.68 1.93 2.15
1.30 1.31 1.47 1.67 1.79 1.88 1.97 2.05 2.11 2.15 2.16 2.18 2.12 2.07 2.14 2.23 2.35 2.51 2.63 2.61 2.62 2.53 2.46 2.40 2.18 1.94 1.88 1.97 2.06 2.18 2.05 1.81 1.77 1.89 1.78 1.66 1.57 1.42 1.30 1.28 1.39 1.50 1.70
1.31 1.30 1.36 1.52 1.63 1.72 1.79 1.84 1.95 2.05 2.06 1.98 1.96 1.85 1.82 1.92 2.06 2.21 2.28 2.40 2.55 2.60 2.62 2.56 2.45 2.23 1.98 1.99 2.08 2.15 2.16 2.22 1.96 1.90 1.87 1.80 1.72 1.65 1.53 1.34 1.25 1.27 1.31
1.33 1.35 1.46 1.52 1.57 1.59 1.71 1.77 1.85 1.85 1.81 1.71 1.68 1.59 1.58 1.61 1.74 1.91 2.03 2.23 2.46 2.59 2.66 2.65 2.59 2.32 2.11 2.07 2.06 2.12 2.25 2.31 2.25 2.01 1.92 1.79 1.84 1.78 1.61 1.47 1.33 1.28 1.31
1.38 1.42 1.48 1.54 1.58 1.59 1.65 1.75 1.69 1.59 1.58 1.56 1.49 1.31 1.26 1.34 1.39 1.52 1.53 1.81 2.10 2.34 2.44 2.50 2.50 2.33 2.09 1.99 1.85 1.92 2.08 2.27 2.30 2.23 2.17 1.88 1.77 1.69 1.63 1.60 1.49 1.39 1.34
1.32 1.34 1.35 1.50 1.60 1.49 1.70 1.71 1.52 1.34 1.31 1.38 1.35 1.22 1.15 1.17 1.12 1.15 1.20 1.44 1.74 1.92 2.07 2.23 2.30 2.17 1.98 1.87 1.93 1.94 1.96 2.00 2.03 1.92 1.94 1.96 1.84 1.73 1.65 1.60 1.63 1.58 1.47
1.27 1.30 1.25 1.34 1.40 1.50 1.57 1.39 1.38 1.27 1.26 1.26 1.28 1.30 1.18 1.10 1.21 1.08 1.07 1.16 1.26 1.41 1.57 1.81 2.00 1.97 2.06 1.97 1.87 1.79 1.80 1.84 1.84 1.88 1.90 1.93 1.79 1.68 1.56 1.53 1.70 1.60 1.57
1.20 1.24 1.21 1.16 1.21 1.36 1.38 1.21 1.27 1.17 1.26 1.31 1.33 1.41 1.41 1.30 1.28 1.37 1.29 1.27 1.21 1.17 1.30 1.22 1.38 1.76 1.93 2.01 1.96 1.97 2.06 1.98 1.80 1.79 1.83 1.89 1.73 1.61 1.47 1.38 1.52 1.43 1.36
1.17 1.14 1.15 1.11 1.14 1.19 1.21 1.11 1.14 1.14 1.28 1.28 1.22 1.36 1.42 1.34 1.46 1.59 1.62 1.62 1.51 1.32 1.48 1.51 1.40 1.50 1.70 1.78 1.88 1.92 1.96 1.90 1.81 1.69 1.57 1.59 1.51 1.50 1.52 1.43 1.39 1.46 1.38
1.16 1.10 1.09 1.05 1.02 1.01 1.10 0.99 1.08 1.14 1.23 1.25 1.25 1.29 1.50 1.42 1.44 1.44 1.46 1.56 1.51 1.33 1.19 1.20 1.19 1.11 1.07 1.20 1.45 1.54 1.79 1.93 1.87 1.75 1.53 1.51 1.55 1.54 1.54 1.39 1.27 1.32 1.34